Change the Weather History Date:

Thursday, August 28, 2014

  Actual Average (KEKN) Record (KEKN)
Temperature  
Mean Temperature 68 °F 68 °F  
Max Temperature 75 °F 79 °F 92 °F (1948)
Min Temperature 59 °F 57 °F 40 °F (1946)
Degree Days  
Heating Degree Days 0 1  
Month to date heating degree days 13  
Since 1 June heating degree days 80  
Since 1 July heating degree days 25  
Cooling Degree Days 2 4  
Month to date cooling degree days 132  
Year to date cooling degree days 413  
Since 1 June cooling degree days 390  
Growing Degree Days 18 (Base 50)    
Moisture  
Dew Point 62 °F    
Average Humidity 83    
Maximum Humidity 100    
Minimum Humidity 57    
Precipitation  
Precipitation 0.00 in 0.11 in 3.32 in (2013)
Month to date precipitation 3.50  
Year to date precipitation 32.47  
Snow  
Snow 0.00 in - - ()
Month to date snowfall  
Since 1 September snowfall  
Snow Depth -    
Sea Level Pressure  
Sea Level Pressure 30.10 in    
Wind  
Wind Speed 2 mph (North)    
Max Wind Speed 7 mph    
Max Gust Speed -    
Visibility 8 miles    
Events Fog    
T = Trace of Precipitation, MM = Missing Value Source: NWS Daily Summary

Daily Weather History Graph

Daily Weather History Graph

Search for Another Location

Airport or City:

Trip Planner

Search our weather history database for the weather conditions in past years. The results will help you decide how hot, cold, wet, or windy it might be!

Date:

Astronomy

Aug. 28, 2014 Rise Set
Actual Time 6:46 AM EDT 7:57 PM EDT
Civil Twilight 6:18 AM EDT 8:25 PM EDT
Nautical Twilight 5:45 AM EDT 8:57 PM EDT
Astronomical Twilight 5:11 AM EDT 9:32 PM EDT
Moon 9:35 AM EDT (8/28) 9:22 PM EDT (8/28)
Length of Visible Light 14h 06m
Length of Day
13h 11m
Waxing Crescent, 8% of the Moon is Illuminated
Aug 28
Waxing Crescent
Sep 2
First Quarter
Sep 8
Full
Sep 15
Last Quarter
Sep 24
New

Hourly Weather History & Observations

Time (EDT) Temp. Dew Point Humidity Pressure Visibility Wind Dir Wind Speed Gust Speed Precip Events Conditions
12:15 AM 68.0 °F 68.0 °F 100% 30.07 in 10.0 mi Calm Calm - N/A   Mostly Cloudy
12:35 AM 68.0 °F 68.0 °F 100% 30.07 in 0.2 mi Calm Calm - N/A Fog Fog
12:55 AM 68.0 °F 68.0 °F 100% 30.08 in 5.0 mi Calm Calm - N/A   Overcast
1:15 AM 68.0 °F 68.0 °F 100% 30.08 in 4.0 mi Calm Calm - N/A   Overcast
1:35 AM 68.0 °F 68.0 °F 100% 30.08 in 2.5 mi Calm Calm - N/A   Overcast
1:55 AM 68.0 °F 68.0 °F 100% 30.07 in 7.0 mi Calm Calm - N/A   Unknown
2:15 AM 68.0 °F 68.0 °F 100% 30.07 in 6.0 mi Calm Calm - N/A   Overcast
2:35 AM 68.0 °F 68.0 °F 100% 30.06 in 3.0 mi Calm Calm - N/A   Overcast
2:55 AM 68.0 °F 68.0 °F 100% 30.06 in 1.2 mi Calm Calm - N/A   Overcast
3:15 AM 68.0 °F 68.0 °F 100% 30.06 in 1.2 mi Calm Calm - N/A   Overcast
3:35 AM 68.0 °F 68.0 °F 100% 30.06 in 2.5 mi Calm Calm - N/A   Overcast
3:55 AM 68.0 °F 68.0 °F 100% 30.06 in 2.5 mi Calm Calm - N/A   Overcast
4:15 AM 68.0 °F 68.0 °F 100% 30.06 in 3.0 mi Calm Calm - N/A   Overcast
4:35 AM 68.0 °F 68.0 °F 100% 30.06 in 2.0 mi Calm Calm - N/A   Overcast
4:55 AM 68.0 °F 68.0 °F 100% 30.06 in 3.0 mi North 4.6 mph - N/A   Overcast
5:15 AM 66.2 °F 66.2 °F 100% 30.06 in 3.0 mi North 4.6 mph - N/A   Mist
5:35 AM 66.2 °F 66.2 °F 100% 30.07 in 4.0 mi Calm Calm - N/A   Mist
5:55 AM 66.2 °F 66.2 °F 100% 30.07 in 3.0 mi North 3.5 mph - N/A   Overcast
6:15 AM 66.2 °F 66.2 °F 100% 30.08 in 3.0 mi North 3.5 mph - N/A   Overcast
6:35 AM 64.4 °F 64.4 °F 100% 30.08 in 2.0 mi North 6.9 mph - N/A   Overcast
6:55 AM 64.4 °F 64.4 °F 100% 30.09 in 1.5 mi North 3.5 mph - N/A   Overcast
7:15 AM 64.4 °F 64.4 °F 100% 30.10 in 2.5 mi North 5.8 mph - N/A   Overcast
7:35 AM 62.6 °F 62.6 °F 100% 30.10 in 3.0 mi North 5.8 mph - N/A   Overcast
7:55 AM 62.6 °F 62.6 °F 100% 30.11 in 4.0 mi NNW 5.8 mph - N/A   Overcast
8:15 AM 64.4 °F 64.4 °F 100% 30.11 in 5.0 mi North 4.6 mph - N/A   Overcast
8:35 AM 64.4 °F 64.4 °F 100% 30.11 in 7.0 mi Variable 5.8 mph - N/A   Scattered Clouds
8:55 AM 64.4 °F 62.6 °F 94% 30.12 in 8.0 mi North 6.9 mph - N/A   Partly Cloudy
9:15 AM 64.4 °F 62.6 °F 94% 30.13 in 9.0 mi NNE 5.8 mph - N/A   Mostly Cloudy
9:35 AM 66.2 °F 62.6 °F 88% 30.13 in 9.0 mi Calm Calm - N/A   Mostly Cloudy
9:55 AM 64.4 °F 62.6 °F 94% 30.13 in 8.0 mi North 5.8 mph - N/A   Mostly Cloudy
10:15 AM 66.2 °F 62.6 °F 88% 30.13 in 9.0 mi Variable 3.5 mph - N/A   Mostly Cloudy
10:55 AM 69.8 °F 60.8 °F 73% 30.14 in 10.0 mi NNE 4.6 mph - N/A   Scattered Clouds
11:15 AM 69.8 °F 60.8 °F 73% 30.13 in 10.0 mi North 3.5 mph - N/A   Partly Cloudy
11:35 AM 69.8 °F 59.0 °F 68% 30.13 in 10.0 mi Calm Calm - N/A   Clear
11:55 AM 71.6 °F 60.8 °F 69% 30.13 in 10.0 mi NNW 4.6 mph - N/A   Clear
12:15 PM 71.6 °F 59.0 °F 64% 30.13 in 10.0 mi Variable 4.6 mph - N/A   Unknown
12:35 PM 73.4 °F 59.0 °F 61% 30.13 in 10.0 mi Variable 3.5 mph - N/A   Clear
12:55 PM 71.6 °F 60.8 °F 69% 30.12 in 10.0 mi Variable 4.6 mph - N/A   Clear
1:15 PM 73.4 °F 59.0 °F 61% 30.12 in 10.0 mi Calm Calm - N/A   Unknown
1:35 PM 73.4 °F 59.0 °F 61% 30.12 in 10.0 mi NNE 6.9 mph - N/A   Clear
1:55 PM 73.4 °F 59.0 °F 61% 30.12 in 10.0 mi North 6.9 mph - N/A   Clear
2:15 PM 73.4 °F 59.0 °F 61% 30.12 in 10.0 mi NNW 4.6 mph - N/A   Clear
2:35 PM 73.4 °F 59.0 °F 61% 30.11 in 10.0 mi Calm Calm - N/A   Clear
2:55 PM 73.4 °F 59.0 °F 61% 30.11 in 10.0 mi NW 4.6 mph - N/A   Clear
3:15 PM 73.4 °F 59.0 °F 61% 30.10 in - Variable 5.8 mph - N/A   Unknown
3:35 PM 75.2 °F 60.8 °F 61% 30.10 in 10.0 mi Variable 4.6 mph - N/A   Unknown
3:55 PM 75.2 °F 59.0 °F 57% 30.10 in 10.0 mi Variable 4.6 mph - N/A   Clear
4:15 PM 75.2 °F 59.0 °F 57% 30.10 in 10.0 mi NNE 5.8 mph - N/A   Clear
4:35 PM 75.2 °F 59.0 °F 57% 30.10 in 10.0 mi Calm Calm - N/A   Clear
4:55 PM 75.2 °F 59.0 °F 57% 30.10 in 10.0 mi NW 5.8 mph - N/A   Clear
5:15 PM 73.4 °F 59.0 °F 61% 30.10 in 10.0 mi North 3.5 mph - N/A   Clear
5:35 PM 75.2 °F 59.0 °F 57% 30.10 in 10.0 mi Variable 3.5 mph - N/A   Clear
5:55 PM 73.4 °F 59.0 °F 61% 30.10 in 10.0 mi Variable 4.6 mph - N/A   Clear
6:15 PM 73.4 °F 59.0 °F 61% 30.10 in 10.0 mi North 4.6 mph - N/A   Clear
6:35 PM 71.6 °F 59.0 °F 64% 30.10 in 10.0 mi Calm Calm - N/A   Clear
6:55 PM 73.4 °F 59.0 °F 61% 30.10 in 10.0 mi Calm Calm - N/A   Clear
7:15 PM 73.4 °F 59.0 °F 61% 30.10 in 10.0 mi Calm Calm - N/A   Clear
7:35 PM 71.6 °F 59.0 °F 64% 30.10 in 10.0 mi Calm Calm - N/A   Clear
7:55 PM 68.0 °F 60.8 °F 78% 30.10 in 10.0 mi Calm Calm - N/A   Partly Cloudy
8:15 PM 66.2 °F 60.8 °F 83% 30.11 in 10.0 mi Calm Calm - N/A   Partly Cloudy
8:35 PM 66.2 °F 60.8 °F 83% 30.11 in 10.0 mi Calm Calm - N/A   Clear
8:55 PM 64.4 °F 62.6 °F 94% 30.12 in 10.0 mi Calm Calm - N/A   Clear
9:15 PM 64.4 °F 60.8 °F 88% 30.13 in 10.0 mi Calm Calm - N/A   Clear
9:35 PM 64.4 °F 59.0 °F 83% 30.15 in 10.0 mi Calm Calm - N/A   Clear
9:55 PM 62.6 °F 60.8 °F 94% 30.15 in 10.0 mi North 3.5 mph - N/A   Clear
10:15 PM 62.6 °F 59.0 °F 88% 30.15 in 10.0 mi Calm Calm - N/A   Clear
10:35 PM 62.6 °F 59.0 °F 88% 30.15 in 10.0 mi Calm Calm - N/A   Clear
10:55 PM 62.6 °F 60.8 °F 94% 30.15 in 10.0 mi Calm Calm - N/A   Clear
11:15 PM 60.8 °F 60.8 °F 100% 30.15 in 10.0 mi Calm Calm - N/A   Clear
11:35 PM 60.8 °F 60.8 °F 100% 30.16 in 10.0 mi Calm Calm - N/A   Clear
11:55 PM 59.0 °F 59.0 °F 100% 30.16 in 10.0 mi Calm Calm - N/A   Clear